Satellite: DTUSAT-2 Catalog number: 40030 Epoch time: 15036.70834467 Element set: 999 Inclination: 097.9623 deg RA of node: 296.5843 deg Eccentricity: 0.0011092 Arg of perigee: 247.1731 deg Mean anomaly: 112.8314 deg Mean motion: 14.86089990 rev/day Decay rate: 3.650e-05 rev/day^2 Epoch rev: 3425 Checksum: 312
Satellite: ANTELSAT Catalog number: 40034 Epoch time: 15036.75597894 Element set: 999 Inclination: 097.9581 deg RA of node: 291.6157 deg Eccentricity: 0.0060214 Arg of perigee: 179.8610 deg Mean anomaly: 180.2641 deg Mean motion: 14.72196888 rev/day Decay rate: 2.524e-05 rev/day^2 Epoch rev: 3395 Checksum: 339
/EX SB KEPS @ AMSAT $ORB15036.W Orbital Elements 15036.WEATHER
HR AMSAT ORBITAL ELEMENTS FOR WEATHER SATELLITES FROM WA5QGD FORT WORTH,TX February 5, 2015 BID: ORB15036.W TO ALL RADIO AMATEURS BT
Satellite: MET-2/21 Catalog number: 22782 Epoch time: 15036.49499627 Element set: 999 Inclination: 082.5524 deg RA of node: 348.1708 deg Eccentricity: 0.0021498 Arg of perigee: 333.6891 deg Mean anomaly: 164.1116 deg Mean motion: 13.83760147 rev/day Decay rate: 1.15e-06 rev/day^2 Epoch rev: 8238 Checksum: 330
Satellite: OKEAN-4 Catalog number: 23317 Epoch time: 15036.23744537 Element set: 999 Inclination: 082.5371 deg RA of node: 209.3207 deg Eccentricity: 0.0021162 Arg of perigee: 050.0394 deg Mean anomaly: 081.3554 deg Mean motion: 14.86280501 rev/day Decay rate: 2.349e-05 rev/day^2 Epoch rev: 9771 Checksum: 291
Satellite: NOAA-14 Catalog number: 23455 Epoch time: 15036.52457360 Element set: 999 Inclination: 098.7600 deg RA of node: 120.6461 deg Eccentricity: 0.0010537 Arg of perigee: 096.8053 deg Mean anomaly: 018.9399 deg Mean motion: 14.14020351 rev/day Decay rate: 8.4e-07 rev/day^2 Epoch rev: 3692 Checksum: 298
Satellite: NOAA-15 Catalog number: 25338 Epoch time: 15036.57951824 Element set: 999 Inclination: 098.7683 deg RA of node: 035.1698 deg Eccentricity: 0.0010736 Arg of perigee: 184.9338 deg Mean anomaly: 283.4389 deg Mean motion: 14.25560175 rev/day Decay rate: 1.89e-06 rev/day^2 Epoch rev: 87009 Checksum: 361
Satellite: RESURS Catalog number: 25394 Epoch time: 15035.87227818 Element set: 999 Inclination: 098.4487 deg RA of node: 355.8531 deg Eccentricity: 0.0000505 Arg of perigee: 357.6190 deg Mean anomaly: 055.2703 deg Mean motion: 14.24438922 rev/day Decay rate: 8.1e-07 rev/day^2 Epoch rev: 86144 Checksum: 321
Satellite: FENGYUN1 Catalog number: 25730 Epoch time: 15036.50091789 Element set: 999 Inclination: 098.9338 deg RA of node: 001.5234 deg Eccentricity: 0.0018815 Arg of perigee: 164.1541 deg Mean anomaly: 333.7661 deg Mean motion: 14.12966140 rev/day Decay rate: 2.000e-05 rev/day^2 Epoch rev: 81045 Checksum: 290
Satellite: OKEAN-0 Catalog number: 25860 Epoch time: 15035.91519959 Element set: 999 Inclination: 098.0779 deg RA of node: 003.9025 deg Eccentricity: 0.0001648 Arg of perigee: 085.9431 deg Mean anomaly: 334.3313 deg Mean motion: 14.75786217 rev/day Decay rate: 1.004e-05 rev/day^2 Epoch rev: 83647 Checksum: 328
Satellite: NOAA-16 Catalog number: 26536 Epoch time: 15036.46575858 Element set: 999 Inclination: 098.9587 deg RA of node: 102.4735 deg Eccentricity: 0.0009852 Arg of perigee: 241.1707 deg Mean anomaly: 118.8476 deg Mean motion: 14.13075039 rev/day Decay rate: -5.0e-07 rev/day^2 Epoch rev: 74105 Checksum: 335
Satellite: NOAA-17 Catalog number: 27453 Epoch time: 15036.55314165 Element set: 999 Inclination: 098.3305 deg RA of node: 029.1444 deg Eccentricity: 0.0011467 Arg of perigee: 203.7407 deg Mean anomaly: 156.3246 deg Mean motion: 14.24849750 rev/day Decay rate: 8.7e-07 rev/day^2 Epoch rev: 65591 Checksum: 318
Satellite: NOAA-18 Catalog number: 28654 Epoch time: 15036.52070861 Element set: 999 Inclination: 099.1752 deg RA of node: 026.0230 deg Eccentricity: 0.0013698 Arg of perigee: 332.9715 deg Mean anomaly: 179.3567 deg Mean motion: 14.12144772 rev/day Decay rate: 1.97e-06 rev/day^2 Epoch rev: 50049 Checksum: 324
Satellite: NOAA-19 Catalog number: 33591 Epoch time: 15036.52439971 Element set: 999 Inclination: 098.9753 deg RA of node: 346.2032 deg Eccentricity: 0.0014182 Arg of perigee: 177.3114 deg Mean anomaly: 314.8851 deg Mean motion: 14.11868731 rev/day Decay rate: 1.16e-06 rev/day^2 Epoch rev: 30891 Checksum: 323
/EX SB KEPS @ AMSAT $ORB15036.M Orbital Elements 15036.MISC
HR AMSAT ORBITAL ELEMENTS FOR MANNED AND MISCELLANEOUS SATELLITES FROM WA5QGD FORT WORTH,TX February 5, 2015 BID: ORB15036.M TO ALL RADIO AMATEURS BT
Satellite: HUBBLE Catalog number: 20580 Epoch time: 15036.37193287 Element set: 999 Inclination: 028.4706 deg RA of node: 302.9445 deg Eccentricity: 0.0002789 Arg of perigee: 264.3847 deg Mean anomaly: 037.1229 deg Mean motion: 15.06755216 rev/day Decay rate: 4.060e-05 rev/day^2 Epoch rev: 15990 Checksum: 315
Satellite: ISS Catalog number: 25544 Epoch time: 15036.75479648 Element set: 999 Inclination: 051.6473 deg RA of node: 020.3663 deg Eccentricity: 0.0005703 Arg of perigee: 331.6319 deg Mean anomaly: 087.1479 deg Mean motion: 15.54376832 rev/day Decay rate: 1.7495e-04 rev/day^2 Epoch rev: 92758 Checksum: 343
Satellite: CO-58 Catalog number: 28895 Epoch time: 15036.09255307 Element set: 999 Inclination: 097.8223 deg RA of node: 230.7721 deg Eccentricity: 0.0016865 Arg of perigee: 359.1172 deg Mean anomaly: 000.9998 deg Mean motion: 14.62473891 rev/day Decay rate: 1.075e-05 rev/day^2 Epoch rev: 49428 Checksum: 354
Satellite: FALCON Catalog number: 30776 Epoch time: 15036.21122088 Element set: 999 Inclination: 035.4282 deg RA of node: 106.6040 deg Eccentricity: 0.0003560 Arg of perigee: 196.1900 deg Mean anomaly: 194.3963 deg Mean motion: 15.21220757 rev/day Decay rate: 1.7171e-04 rev/day^2 Epoch rev: 43616 Checksum: 281
Satellite: MAST Catalog number: 31126 Epoch time: 15036.66271525 Element set: 999 Inclination: 097.9450 deg RA of node: 010.8136 deg Eccentricity: 0.0090935 Arg of perigee: 347.0189 deg Mean anomaly: 060.6857 deg Mean motion: 14.55791757 rev/day Decay rate: 1.827e-05 rev/day^2 Epoch rev: 41435 Checksum: 326
Satellite: CAPE1 Catalog number: 31130 Epoch time: 15036.31368541 Element set: 999 Inclination: 097.9668 deg RA of node: 007.4603 deg Eccentricity: 0.0097988 Arg of perigee: 007.2824 deg Mean anomaly: 352.9771 deg Mean motion: 14.55129685 rev/day Decay rate: 2.857e-05 rev/day^2 Epoch rev: 41370 Checksum: 336
Satellite: COMPASS Catalog number: 32787 Epoch time: 15036.20350482 Element set: 999 Inclination: 097.6694 deg RA of node: 087.8886 deg Eccentricity: 0.0014712 Arg of perigee: 128.2580 deg Mean anomaly: 231.9964 deg Mean motion: 14.89720878 rev/day Decay rate: 6.310e-05 rev/day^2 Epoch rev: 36685 Checksum: 354
Satellite: AAUSAT2 Catalog number: 32788 Epoch time: 15036.08367554 Element set: 999 Inclination: 097.6707 deg RA of node: 089.0720 deg Eccentricity: 0.0014220 Arg of perigee: 126.0430 deg Mean anomaly: 234.2108 deg Mean motion: 14.90644324 rev/day Decay rate: 7.147e-05 rev/day^2 Epoch rev: 36691 Checksum: 306
Satellite: DO-64 Catalog number: 32789 Epoch time: 15036.12860309 Element set: 999 Inclination: 097.6912 deg RA of node: 098.1702 deg Eccentricity: 0.0012927 Arg of perigee: 108.1624 deg Mean anomaly: 309.8706 deg Mean motion: 14.97454558 rev/day Decay rate: 1.4098e-04 rev/day^2 Epoch rev: 36730 Checksum: 348
Satellite: CO-66 Catalog number: 32791 Epoch time: 15036.39415139 Element set: 999 Inclination: 097.6689 deg RA of node: 086.2955 deg Eccentricity: 0.0015360 Arg of perigee: 132.5286 deg Mean anomaly: 227.7231 deg Mean motion: 14.87999989 rev/day Decay rate: 4.670e-05 rev/day^2 Epoch rev: 36671 Checksum: 379
Satellite: RS-30 Catalog number: 32953 Epoch time: 15036.80221594 Element set: 999 Inclination: 082.5019 deg RA of node: 055.9490 deg Eccentricity: 0.0018687 Arg of perigee: 010.4150 deg Mean anomaly: 349.7315 deg Mean motion: 12.43056073 rev/day Decay rate: 1.0e-07 rev/day^2 Epoch rev: 30428 Checksum: 288
Satellite: METEOR-M Catalog number: 35865 Epoch time: 15036.77057810 Element set: 999 Inclination: 098.5188 deg RA of node: 081.7090 deg Eccentricity: 0.0002820 Arg of perigee: 125.8394 deg Mean anomaly: 234.3042 deg Mean motion: 14.21987018 rev/day Decay rate: 1.64e-06 rev/day^2 Epoch rev: 27953 Checksum: 318
Satellite: RS-38 Catalog number: 35869 Epoch time: 15036.68829414 Element set: 999 Inclination: 098.5120 deg RA of node: 081.3249 deg Eccentricity: 0.0005081 Arg of perigee: 128.4020 deg Mean anomaly: 231.7602 deg Mean motion: 14.22268497 rev/day Decay rate: 9.1e-07 rev/day^2 Epoch rev: 27956 Checksum: 325
Satellite: JUGNU Catalog number: 37839 Epoch time: 15035.13246485 Element set: 999 Inclination: 019.9609 deg RA of node: 289.0851 deg Eccentricity: 0.0019053 Arg of perigee: 020.0586 deg Mean anomaly: 113.4848 deg Mean motion: 14.12415554 rev/day Decay rate: 4.55e-06 rev/day^2 Epoch rev: 17138 Checksum: 314
Satellite: SRMSAT Catalog number: 37841 Epoch time: 15035.17384642 Element set: 999 Inclination: 019.9723 deg RA of node: 312.8313 deg Eccentricity: 0.0011817 Arg of perigee: 312.0221 deg Mean anomaly: 199.4061 deg Mean motion: 14.10437369 rev/day Decay rate: 4.11e-06 rev/day^2 Epoch rev: 17115 Checksum: 278
Satellite: RAX-2 Catalog number: 37853 Epoch time: 15036.43873428 Element set: 999 Inclination: 101.7074 deg RA of node: 183.0052 deg Eccentricity: 0.0202792 Arg of perigee: 100.1306 deg Mean anomaly: 309.4012 deg Mean motion: 14.93902711 rev/day Decay rate: 1.3883e-04 rev/day^2 Epoch rev: 17742 Checksum: 289
Satellite: AUBIESAT Catalog number: 37854 Epoch time: 15036.38957741 Element set: 999 Inclination: 101.7129 deg RA of node: 185.7346 deg Eccentricity: 0.0198868 Arg of perigee: 095.8668 deg Mean anomaly: 322.1577 deg Mean motion: 14.95779694 rev/day Decay rate: 1.4292e-04 rev/day^2 Epoch rev: 17750 Checksum: 383
